Hourly Data Report for October 14, 2013

All times are specified in Local Standard Time (LST). Add 1 hour to adjust for Daylight Saving Time where and when it is observed.

OTTAWA INTL A
ONTARIO

45°19'00.000" N
75°40'00.000" W
114.90 m
6106001
71628
YOW

Download Data

Hourly Data (October 2013)
Hourly Data Report for October 14, 2013
Temp Definition
°C
Dew Point Temp Definition
°C
Rel Hum Definition
%
Wind Dir Definition
10's deg

Wind Spd Definition
km/h
Visibility Definition
km
Stn Press Definition
kPa
Hmdx Definition


Wind Chill Definition


Weather Definition


TIME
00:00 Legend Double Dagger 14.2 13.7 97 8 3 4.8 101.04     Rain,Fog
01:00 Legend Double Dagger 14.2 13.9 98 14 3 3.2 101.02     Rain,Fog
02:00 Legend Double Dagger 14.0 13.7 98 16 4 3.2 100.99     Rain Showers,Fog
03:00 Legend Double Dagger 14.0 13.7 98 24 5 4.8 101.00     Fog
04:00 Legend Double Dagger 14.1 13.8 98 21 4 6.4 100.99     Fog
05:00 Legend Double Dagger 14.2 13.9 98 25 8 6.4 101.02     Fog
06:00 Legend Double Dagger 14.3 14.0 98 25 8 8.1 101.04     Fog
07:00 Legend Double Dagger 13.9 13.1 95 26 19 24.1 101.07     Cloudy
08:00 Legend Double Dagger 12.9 11.3 90 29 16 24.1 101.10     LegendNANA
09:00 Legend Double Dagger 12.7 11.1 90 27 15 24.1 101.16     LegendNANA
10:00 Legend Double Dagger 13.7 11.1 84 28 14 24.1 101.15     Mainly Clear
11:00 Legend Double Dagger 16.3 10.7 69 29 14 24.1 101.12     LegendNANA
12:00 Legend Double Dagger 17.1 11.0 67 29 18 24.1 101.09     LegendNANA
13:00 Legend Double Dagger 17.2 10.9 66 25 19 24.1 101.07     Clear
14:00 Legend Double Dagger 16.8 10.9 68 27 20 24.1 101.07     LegendNANA
15:00 Legend Double Dagger 16.1 10.9 71 26 22 24.1 101.06     LegendNANA
16:00 Legend Double Dagger 15.5 10.7 73 27 16 24.1 101.09     Mainly Clear
17:00 Legend Double Dagger 14.6 10.7 77 28 15 24.1 101.15     LegendNANA
18:00 Legend Double Dagger 11.8 9.7 87 25 8 24.1 101.16     LegendNANA
19:00 Legend Double Dagger 11.6 9.9 89 29 11 24.1 101.19     Clear
20:00 Legend Double Dagger 11.2 9.5 89 29 9 24.1 101.23     LegendNANA
21:00 Legend Double Dagger 10.1 8.9 92 29 10 24.1 101.22     LegendNANA
22:00 Legend Double Dagger 9.8 9.0 95 32 9 24.1 101.20     Mainly Clear
23:00 Legend Double Dagger 10.0 9.2 95 34 13 24.1 101.22     LegendNANA

Notes on Data Quality.

Legend

  • E = Estimated
  • M = Missing
  • NA = Not Available
  • ‡ = Partner data that is not subject to review by the National Climate Archives
Date modified: